Waarnemingen

Advertentie
Mijn weer
Chalons-Vatry Airport, Frankrijk (7166): temperatuur & dauwpunt: 13.04.2019 07:00:00 - 19.04.2019 07:00:00 (CEST)Chalons-Vatry Airport, Frankrijk (7166): windsnelheid & windstoten: 13.04.2019 07:00:00 - 19.04.2019 07:00:00 (CEST)Chalons-Vatry Airport, Frankrijk (7166): windrichting: 13.04.2019 07:00:00 - 19.04.2019 07:00:00 (CEST)Chalons-Vatry Airport, Frankrijk (7166): luchtdruk: 13.04.2019 07:00:00 - 19.04.2019 07:00:00 (CEST)Chalons-Vatry Airport, Frankrijk (7166): zicht: 13.04.2019 07:00:00 - 19.04.2019 07:00:00 (CEST)Chalons-Vatry Airport, Frankrijk (7166): neerslag: 13.04.2019 07:00:00 - 19.04.2019 07:00:00 (CEST)
Datum & Tijd tt [°C] td [°C] ff [km/u] ff [kn] fx [km/u] fx [kn] dd ppp [hPa] vv [km] rr [mm]
19.04.2019 07:00:00 - - - - - - - - - -
19.04.2019 06:00:00 6,8 4,5 13 7 15 8 NNO 1023,4 10 0,0
19.04.2019 05:00:00 8,0 4,9 11 6 16 9 NO 1023,0 10 0,0
19.04.2019 04:00:00 7,9 5,0 11 6 17 9 NNO 1022,8 10 0,0
19.04.2019 03:00:00 9,4 5,8 11 6 14 8 NO 1022,5 10 0,0
19.04.2019 02:00:00 9,9 5,7 11 6 22 12 NNO 1022,4 10 0,0
19.04.2019 01:00:00 13,0 5,9 18 10 24 13 ONO 1022,2 10 0,0
19.04.2019 00:00:00 13,1 6,2 21 11 26 14 O 1021,8 21 0,0
18.04.2019 23:00:00 13,8 5,9 21 11 24 13 O 1021,5 10 0,0
18.04.2019 22:00:00 15,5 5,7 16 9 25 14 O 1021,1 10 0,0
18.04.2019 21:00:00 15,8 6,8 15 8 21 12 ONO 1020,5 10 0,0
18.04.2019 20:00:00 18,3 7,1 15 8 26 14 ONO 1019,8 10 0,0
18.04.2019 19:00:00 20,7 5,5 21 11 36 20 ONO 1019,4 10 0,0
18.04.2019 18:00:00 21,8 4,4 24 13 37 20 ONO 1019,0 10 0,0
18.04.2019 17:00:00 21,8 5,2 22 12 38 21 ONO 1019,0 10 0,0
18.04.2019 16:00:00 22,2 6,4 21 11 37 20 O 1019,2 10 0,0
18.04.2019 15:00:00 21,4 7,6 22 12 40 22 O 1019,3 10 0,0
18.04.2019 14:00:00 20,5 8,2 24 13 37 20 O 1019,5 10 0,0
18.04.2019 13:00:00 19,6 8,9 22 12 36 19 O 1019,7 13 0,0
18.04.2019 12:00:00 18,1 9,4 22 12 32 18 O 1020,2 10 0,0
18.04.2019 11:00:00 16,7 8,9 23 12 34 19 O 1020,6 8 0,0
18.04.2019 10:00:00 14,7 9,1 26 14 35 19 O 1020,6 7 0,0
18.04.2019 09:00:00 12,2 8,1 22 12 31 17 O 1020,6 8 0,0
18.04.2019 08:00:00 9,3 7,7 15 8 21 12 ONO 1020,6 9 0,0
18.04.2019 07:00:00 6,9 6,5 15 8 19 10 NO 1020,5 7 0,0
18.04.2019 06:00:00 6,3 5,7 9 5 14 8 NNO 1020,1 4,9 0,0
18.04.2019 05:00:00 6,2 5,5 11 6 17 9 NNO 1020,0 8 0,0
18.04.2019 04:00:00 6,9 6,0 9 5 15 8 NNO 1020,1 10 0,0
18.04.2019 03:00:00 7,4 5,9 9 5 15 8 NO 1020,1 10 0,0
18.04.2019 02:00:00 8,5 6,3 8 4 19 11 NO 1020,0 10 0,0
18.04.2019 01:00:00 10,1 7,5 16 9 20 11 ONO 1019,8 29 0,0
18.04.2019 00:00:00 10,6 7,7 16 9 19 11 ONO 1019,7 10 0,0
17.04.2019 23:00:00 11,4 7,9 15 8 21 11 ONO 1019,8 32 0,0
17.04.2019 22:00:00 11,9 8,6 13 7 16 8 ONO 1019,8 10 0,0
17.04.2019 21:00:00 12,9 9,0 12 6 16 8 NO 1019,2 32 0,0
17.04.2019 20:00:00 15,3 9,2 15 8 32 17 NO 1018,6 10 0,0
17.04.2019 19:00:00 16,9 8,6 20 11 28 15 ONO 1018,7 49 0,0
17.04.2019 18:00:00 17,1 8,2 16 9 27 15 ONO 1018,8 10 0,0
17.04.2019 17:00:00 17,4 8,5 9 5 21 11 NO 1019,0 19 0,0
17.04.2019 16:00:00 17,3 7,9 5 3 16 9 O 1019,8 10 0,0
17.04.2019 15:00:00 16,8 8,0 8 4 21 11 ZZO 1020,2 10 0,0
17.04.2019 14:00:00 15,4 7,7 9 5 22 12 OZO 1020,4 10 0,0
17.04.2019 13:00:00 15,2 9,3 9 5 22 12 OZO 1020,8 10 0,0
17.04.2019 12:00:00 14,1 9,7 5 3 18 10 ZZO 1020,9 10 0,0
17.04.2019 11:00:00 11,1 9,7 9 5 19 10 ZZO 1021,4 10 0,0
17.04.2019 10:00:00 10,0 9,8 9 5 17 9 ZZW 1021,4 6 0,0
17.04.2019 09:00:00 8,9 8,6 11 6 18 10 ZW 1021,3 0,2 0,0
17.04.2019 08:00:00 8,4 8,1 9 5 14 7 ZZW 1021,0 0,1 0,0
17.04.2019 07:00:00 8,4 8,1 8 4 14 8 WZW 1020,6 0,3 0,0
17.04.2019 06:00:00 8,5 8,2 11 6 16 9 WZW 1020,2 0,6 0,2
17.04.2019 05:00:00 7,0 6,7 8 4 13 7 ZZW 1019,9 0,3 0,0
17.04.2019 04:00:00 7,1 6,7 8 4 13 7 ZZW 1020,0 0,5 0,0
17.04.2019 03:00:00 7,9 7,5 8 4 11 6 ZZW 1019,9 0,1 0,0
17.04.2019 02:00:00 9,3 8,8 8 4 14 7 ZZW 1019,9 4,0 0,0
17.04.2019 01:00:00 9,5 9,0 11 6 17 9 ZW 1019,8 4,9 0,0
17.04.2019 00:00:00 9,6 9,1 13 7 20 11 ZW 1019,5 5 0,0
16.04.2019 23:00:00 9,6 9,1 14 7 19 10 ZW 1019,4 3,0 0,0
16.04.2019 22:00:00 9,6 9,0 9 5 17 9 ZW 1019,1 5 0,0
16.04.2019 21:00:00 10,0 9,4 11 6 20 11 ZW 1018,5 6 0,0
16.04.2019 20:00:00 10,2 9,4 13 7 20 11 ZW 1017,7 7 0,0
16.04.2019 19:00:00 10,3 9,4 13 7 22 12 WZW 1017,3 12 0,0
16.04.2019 18:00:00 10,2 9,4 13 7 29 16 WZW 1017,0 10 0,0
16.04.2019 17:00:00 10,6 9,8 14 8 24 13 ZW 1016,7 20 0,8
16.04.2019 16:00:00 10,5 9,4 13 7 24 13 WZW 1016,4 10 0,6
16.04.2019 15:00:00 10,4 9,5 16 9 28 15 ZZW 1016,4 8 0,4
16.04.2019 14:00:00 10,0 9,2 18 10 32 17 ZZW 1016,1 6 0,2
16.04.2019 13:00:00 9,7 8,9 22 12 32 17 Z 1016,2 6 0,0
16.04.2019 12:00:00 9,5 8,6 20 11 32 18 Z 1016,1 4,4 0,6
16.04.2019 11:00:00 9,7 8,8 23 12 38 20 Z 1015,6 10 -
16.04.2019 10:00:00 9,5 8,3 26 14 39 21 ZZW 1015,3 9 -
16.04.2019 09:00:00 9,6 7,2 29 16 41 22 ZZW 1014,8 10 -
16.04.2019 08:00:00 8,5 4,9 19 10 30 16 ZZW 1014,5 22 0,0
16.04.2019 07:00:00 6,8 3,4 19 10 30 16 ZZW 1013,8 17 0,0
16.04.2019 06:00:00 7,0 3,6 22 12 27 15 Z 1013,4 10 0,0
16.04.2019 05:00:00 7,4 3,6 21 11 31 17 ZZO 1013,3 10 0,0
16.04.2019 04:00:00 7,8 4,0 22 12 29 16 ZO 1013,6 10 0,0
16.04.2019 03:00:00 7,8 4,0 19 11 24 13 ZO 1013,7 13 0,0
16.04.2019 02:00:00 7,9 3,5 19 10 26 14 OZO 1014,2 15 0,0
16.04.2019 01:00:00 8,9 3,9 22 12 27 14 OZO 1014,8 10 0,0
16.04.2019 00:00:00 9,2 3,6 15 8 24 13 OZO 1014,7 10 0,0
15.04.2019 23:00:00 9,4 4,2 16 9 27 15 OZO 1014,7 13 0,0
15.04.2019 22:00:00 9,9 3,6 18 10 26 14 O 1014,6 10 0,0
15.04.2019 21:00:00 11,2 3,9 19 11 24 13 O 1014,4 18 0,0
15.04.2019 20:00:00 13,0 4,2 17 9 24 13 O 1014,4 18 0,0
15.04.2019 19:00:00 15,8 3,6 21 11 36 20 O 1014,6 10 0,0
15.04.2019 18:00:00 15,9 3,3 26 14 44 24 OZO 1015,1 10 0,0
15.04.2019 17:00:00 16,2 2,6 27 15 45 24 O 1015,7 14 0,0
15.04.2019 16:00:00 15,8 2,9 26 14 46 25 OZO 1016,7 10 0,0
15.04.2019 15:00:00 15,3 2,4 26 14 52 28 OZO 1017,7 10 0,0
15.04.2019 14:00:00 13,7 2,0 22 12 41 22 O 1018,9 10 0,0
15.04.2019 13:00:00 12,2 0,9 22 12 37 20 ONO 1020,0 10 0,0
15.04.2019 12:00:00 10,3 2,4 16 9 27 15 ONO 1021,4 10 0,0
15.04.2019 11:00:00 8,1 1,5 18 10 33 18 O 1022,5 10 0,0
15.04.2019 10:00:00 6,2 0,9 22 12 32 18 ONO 1022,8 10 0,0
15.04.2019 09:00:00 3,8 0,5 24 13 31 17 ONO 1023,2 10 0,0
15.04.2019 08:00:00 1,3 -0,8 18 10 25 14 ONO 1023,7 8 0,0
15.04.2019 07:00:00 0,3 -1,3 21 11 25 13 ONO 1023,9 7 0,0
15.04.2019 06:00:00 -1,6 -2,6 15 8 18 10 NO 1024,1 5 0,0
15.04.2019 05:00:00 -0,5 -2,2 11 6 19 10 NNO 1024,3 6 0,0
15.04.2019 04:00:00 0,8 -1,3 16 9 19 10 NO 1024,2 7 0,0
15.04.2019 03:00:00 0,7 -1,9 8 5 11 6 NNO 1024,5 7 0,0
15.04.2019 02:00:00 1,9 -1,4 9 5 11 6 NO 1024,7 9 0,0
15.04.2019 01:00:00 2,0 -1,8 10 5 12 6 NNO 1025,0 10 0,0
15.04.2019 00:00:00 2,3 -1,7 9 5 16 9 NO 1024,9 10 0,0
14.04.2019 23:00:00 3,0 -1,7 8 5 12 6 NNO 1024,7 12 0,0
14.04.2019 22:00:00 3,7 -1,9 9 5 12 6 NNO 1024,2 10 0,0
14.04.2019 21:00:00 4,4 -1,4 8 4 16 8 NNO 1023,8 10 0,0
14.04.2019 20:00:00 5,9 -1,1 13 7 22 12 NO 1023,2 10 0,0
14.04.2019 19:00:00 7,8 -3,7 9 5 18 10 N 1023,4 10 0,0
14.04.2019 18:00:00 7,4 -4,1 15 8 33 18 NNO 1023,2 10 0,0
14.04.2019 17:00:00 7,8 -2,0 16 9 36 19 NO 1022,2 10 0,0
14.04.2019 16:00:00 7,6 -1,1 21 11 39 21 NNO 1022,5 10 0,0
14.04.2019 15:00:00 7,1 -2,6 21 11 31 17 ONO 1022,6 10 0,0
14.04.2019 14:00:00 6,9 -3,4 16 9 31 17 NO 1022,6 9 0,0
14.04.2019 13:00:00 6,6 -2,6 18 10 27 14 N 1022,9 8 0,0
14.04.2019 12:00:00 5,3 -1,8 15 8 28 15 NNO 1023,2 10 0,0
14.04.2019 11:00:00 3,6 -1,0 16 9 26 14 NNO 1023,2 10 0,0
14.04.2019 10:00:00 1,8 -1,8 16 9 23 13 NNO 1023,1 7 0,0
14.04.2019 09:00:00 0,1 -2,6 11 6 17 9 N 1022,8 10 0,0
14.04.2019 08:00:00 -1,9 -4,1 11 6 14 8 N 1023,0 12 0,0
14.04.2019 07:00:00 -2,5 -4,7 10 5 11 6 N 1022,7 12 0,0
14.04.2019 06:00:00 -2,5 -4,4 9 5 14 7 NNO 1022,5 10 0,0
14.04.2019 05:00:00 -2,0 -4,0 12 6 14 7 NNO 1022,7 11 0,0
14.04.2019 04:00:00 -1,8 -4,0 8 4 12 6 NNO 1022,7 11 0,0
14.04.2019 03:00:00 -1,3 -3,7 9 5 13 7 N 1022,5 10 0,0
14.04.2019 02:00:00 -0,8 -3,7 11 6 12 6 NNO 1022,9 10 0,0
14.04.2019 01:00:00 -1,1 -3,5 8 4 10 5 N 1023,2 10 0,0
14.04.2019 00:00:00 0,4 -3,2 9 5 11 6 NNO 1023,1 10 0,0
13.04.2019 23:00:00 1,1 -3,4 8 4 14 8 NO 1023,3 10 0,0
13.04.2019 22:00:00 1,6 -3,7 9 5 21 11 NO 1023,3 10 0,0
13.04.2019 21:00:00 2,6 -4,2 11 6 21 11 NNO 1023,1 10 0,0
13.04.2019 20:00:00 4,4 -3,9 11 6 35 19 NNO 1022,6 10 0,0
13.04.2019 19:00:00 6,2 -5,8 18 10 44 24 NNO 1022,2 10 0,0
13.04.2019 18:00:00 7,6 -6,5 29 16 40 21 NNO 1022,2 19 0,0
13.04.2019 17:00:00 7,8 -7,5 24 13 41 22 N 1022,3 10 0,0
13.04.2019 16:00:00 7,1 -5,3 28 15 41 22 NNO 1022,7 10 0,0
13.04.2019 15:00:00 7,4 -4,4 22 12 39 21 N 1022,9 10 0,0
13.04.2019 14:00:00 7,6 -6,2 26 14 40 21 NNO 1022,9 20 0,0
13.04.2019 13:00:00 6,3 -5,4 26 14 45 25 N 1023,2 10 0,0
13.04.2019 12:00:00 5,5 -5,2 24 13 36 19 NNO 1023,7 10 0,0
13.04.2019 11:00:00 5,0 -1,0 21 12 34 19 NNO 1023,8 8 0,0
13.04.2019 10:00:00 2,7 -1,1 21 11 36 19 NNO 1023,9 8 0,0
13.04.2019 09:00:00 0,6 -1,8 17 9 22 12 NNO 1023,9 6 0,0
13.04.2019 08:00:00 -1,4 -3,0 11 6 16 9 N 1024,0 6 0,0
13.04.2019 07:00:00 -2,3 -3,9 11 6 16 9 N 1023,8 6 0,0

tt = temperatuur
td = dauwpunt
ff = windsnelheid
fx = windstoten
dd = windrichting
ppp = luchtdruk
vv = zicht
rr = neerslag

Weerstations in de omgeving